Regional Weather Roundup
Issued by NWS Cleveland, OH

Home | Current Version | Previous Version | Text Only | Print | Product List | Glossary On
Versions: 1 2 3 4 5 6 7 8 9 10 11 12 13 14 15 16 17 18 19 20 21 22 23 24 25 26 27 28 29 30 31 32 33 34 35 36 37 38 39 40 41 42 43 44 45 46 47 48 49 50
000
ASUS41 KCLE 122212
RWRCLE
OHIO REGIONAL WEATHER ROUNDUP
NATIONAL WEATHER SERVICE WILMINGTON, OH
500 PM EST TUE DEC 12 2017

NOTE: "FAIR" INDICATES FEW OR NO CLOUDS BELOW 12,000 FEET WITH NO
SIGNIFICANT WEATHER AND/OR OBSTRUCTIONS TO VISIBILITY.

OHZ001>008-015>018-024>027-034-035-043-044-122300-
   NORTHWEST OHIO

CITY           SKY/WX    TMP DP  RH WIND       PRES   REMARKS
DEFIANCE       NOT AVBL
FINDLAY        CLOUDY    22   3  44 NW18G26   29.89R WCI   7
TOLEDO EXPRESS FAIR      19   5  54 NW9       29.89R WCI   8
TOLEDO EXEC    FAIR      20   5  52 NW10      29.90S WCI   9
LIMA           MOCLDY    21   9  59 NW23G30   29.89R WCI   5
$$

OHZ009>014-019>023-028>033-038-089-122300-
   NORTHEAST OHIO

CITY           SKY/WX    TMP DP  RH WIND       PRES   REMARKS
CLE-HOPKINS    CLOUDY    20   7  57 NW16G29   29.85S WCI   6
CLE-LAKEFRONT  FLURRIES  21   6  52 NW26G39   29.83R WCI   4
CUY CO. ARPT   CLOUDY    19   3  49 NW23      29.81R WCI   2
LORAIN-ELYRIA  LGT SNOW  18   8  65 N17G26    29.85R WCI   3
ASHTABULA      FLURRIES  17   4  56 NW18G28   29.78R WCI   1
AKRON-CANTON   MOCLDY    17   6  62 NW15G22   29.80R WCI   2
WOOSTER        FAIR      16   5  62 NW17G24   29.83R WCI   0
MANSFIELD      FLURRIES  18   3  52 NW15G21   29.83R WCI   4
YOUNGSTOWN     FAIR      17   2  51 W10G20    29.76R WCI   5
$$

OHZ042-051>053-060>062-070>072-077>081-122300-
  SOUTHWEST OHIO

CITY           SKY/WX    TMP DP  RH WIND       PRES   REMARKS
CINC-COVINGTON FAIR      26   9  48 NW15      29.96R WCI  14
CINC-LUNKEN    MOCLDY    28  10  46 VRB7G18   29.99R WCI  21
HAMILTON       CLOUDY    27  11  51 W13       29.98R WCI  16
DAYTON         MOCLDY    20  14  77 W15       29.93R WCI   6
WRIGHT-PAT AFB FAIR      23  13  66 W13G25    29.93R WCI  11
DAYTON GENERAL CLOUDY    24  13  62 NW15G22   29.93R WCI  11
WILMINGTON     CLOUDY    23  13  65 NW17      29.91R WCI   9
$$

OHZ036-037-039>041-045>050-054>059-063>069-073>076-082>088-122300-
  CENTRAL AND SOUTHEAST OHIO

CITY           SKY/WX    TMP DP  RH WIND       PRES   REMARKS
COLUMBUS       CLOUDY    24  10  55 NW15      29.88R WCI  11
OSU AIRPORT    FLURRIES  23  12  62 NW21G26   29.88R WCI   8
BOLTON FIELD   MOCLDY    21  12  68 MISG      29.90
RICKENBACK AFB FAIR      23  13  67 W15       29.90R WCI  10
NEWARK         CLOUDY    24   8  50 NW16G26   29.87R WCI  11
MARION         NOT AVBL
LANCASTER      CLOUDY    24   9  52 NW15G23   29.88R WCI  11
ZANESVILLE     CLOUDY    23   6  48 NW16G23   29.85R WCI  10
NEW PHILLY     LGT SNOW  19  11  70 NW15G25   29.85R VSB 1   WCI   5
$$




USA.gov is the U.S. government's official web portal to all federal, state and local government web resources and services.